SCP
0 0 0 0 0 0 0 0 0 0 0 0 0 0 0 0 0 0 0 0 0 0 0 0 0 0 0 0 0 0 0 0 0 0 0 0 0 0 0 0 0 0 0
0 0 0 0 0 0 0 0 0 0 0 0 0 0 0 0 0 0 0 0 0 0 0 0 0 0 0 0 0 0 0 0 0 0 0 0 0 0 0 0 0 0 0
0 0 0 0 0 0 0 0 0 0 0 0 0 0 0 0 0 0 0 0 0 0 0 0 0 0 0 0 0 0 0 0 0 0 0 0 0 0 0 0 0 0 0
0 0 0 0 0 0 0 0 0 0 0 0 0 0 0 0 0 0 0 0 0 0 0 0 0 0 0 0 0 0 0 0 0 0 0 0 0 0 0 0 0 0 0
0 0 0 0 0 0 0 0 0 0 0 0 0 0 0 0 0 0 0 0 0 0 0 0 0 0 0 0 0 0 0 0 0 0 0 0 0 0 0 0 0 0 0
0 0 0 0 0 0 0 0 0 0 0 0 0 0 0 0 0 0 0 0 0 0 0 0 0 0 0 0 0 0 0 0 0 0 0 0 0 0 0 0 0 0 0
0 0 0 0 0 0 0 0 0 0 0 0 0 0 0 0 0 0 0 0 0 0 0 0 0 0 0 0 0 0 0 0 0 0 0 0 0 0 0 0 0 0 0
0 0 0 0 0 0 0 0 0 0 0 0 0 0 0 0 0 0 0 0 0 0 0 0 0 0 0 0 0 0 0 0 0 0 0 0 0 0 0 0 0 0 0
0 0 0 0 0 0 0 0 0 0 0 0 0 0 0 0 0 0 0 0 0 0 0 0 0 0 0 0 0 0 0 0 0 0 0 0 0 0 0 0 0 0 0
0 0 0 0 0 0 0 0 0 0 0 0 0 0 0 0 0 0 0 0 0 0 0 0 0 0 0 0 0 0 0 0 0 0 0 0 0 0 0 0 0 0 0
0 0 0 0 0 0 0 0 0 0 0 0 0 0 0 0 0 0 0 0 0 0 0 0 0 0 0 0 0 0 0 0 0 0 0 0 0 0 0 0 0 0 0
0 0 0 0 0 0 0 0 0 0 0 0 0 0 0 0 0 0 0 0 0 0 0 0 0 0 0 0 0 0 0 0 0 0 0 0 0 0 0 0 0 0 0
0 0 0 0 0 0 0 0 0 0 0 0 0 0 0 0 0 0 0 0 0 0 0 0 0 0 0 0 0 0 0 0 0 0 0 0 0 0 0 0 0 0 0
0 0 0 0 0 0 0 0 0 0 0 0 0 0 0 0 0 0 0 0 0 0 0 0 0 0 0 0 0 0 0 0 0 0 0 0 0 0 0 0 0 0 0
0 0 0 0 0 0 0 0 0 0 0 0 0 0 0 0 0 0 0 -0 0 0 0 0 0 0 0 0 0 0 0 0 0 0 0 0 0 0 0 0 0 0 0
0 0 0 0 0 0 0 0 0 0 0 0 0 0 0 0 0 0 0 -0 -0 0 0 0 0 0 0 0 0 0 0 0 0 0 0 0 0 0 0 0 0 0 0
0 0 0 0 0 0 0 0 0 0 0 0 0 0 0 0 0 0 0 -0 -0 0 0 0 0 0 0 0 0 0 0 0 0 0 0 0 0 0 0 0 0 0 0
0 0 0 0 0 0 0 0 0 0 0 0 0 0 0 0 0 0 0 -0 -0 0 0 0 0 0 0 0 0 0 0 0 0 0 0 0 0 0 0 0 0 0 0
0 0 0 0 0 0 0 0 0 0 0 0 0 0 0 0 0 0 -0 -0 0 0 0 0 0 0 0 0 0 0 0 0 0 0 0 0 0 0 0 0 0 0 0
0 0 0 0 0 0 0 0 0 0 0 0 0 0 0 0 0 0 0 -0 0 0 0 0 0 0 0 0 0 0 0 0 0 0 0 0 0 0 0 0 0 0 0
0 0 0 0 0 0 0 0 0 0 0 0 0 0 0 0 0 0 0 0 0 0 0 0 0 0 0 0 0 0 0 0 0 0 0 0 0 0 0 0 0 0 0
0 0 0 0 0 0 0 0 0 0 0 0 0 0 0 0 0 0 0 0 0 0 0 0 0 0 0 0 0 0 0 0 0 0 0 0 0 0 0 0 0 0 0
0 0 0 0 0 0 0 0 0 0 0 0 0 0 0 0 0 0 0 0 0 0 0 0 0 0 0 0 0 0 0 0 0 0 0 0 0 0 0 0 0 0 0
0 0 0 0 0 0 0 0 0 0 0 0 0 0 0 0 0 0 0 0 0 0 0 0 0 0 0 0 0 0 0 0 0 0 0 0 0 0 0 0 0 0 0
0 0 0 0 0 0 0 0 0 0 0 0 0 0 0 0 0 0 0 0 0 0 0 0 0 0 0 0 0 0 0 0 0 0 0 0 0 0 0 0 0 0 0
0 0 0 0 0 0 0 0 0 0 0 0 0 0 0 0 0 0 0 0 0 0 0 0 0 0 0 0 0 0 0 0 0 0 0 0 0 0 0 0 0 0 0
Wind_Speed
3 3 6 7 7 8 9 9 10 10 11 11 11 11 11 11 11 12 12 13 13 14 14 14 14 15 15 16 16 16 16 16 16 16 16 16 16 16 16 16 14 10 16
4 3 7 7 8 9 9 10 10 10 10 11 11 11 11 11 11 12 13 13 13 13 14 14 15 15 15 15 15 16 16 16 16 15 14 13 14 16 16 16 14 11 16
4 3 6 8 9 9 9 10 10 10 10 10 11 11 11 11 12 12 13 13 13 13 14 14 14 15 15 15 15 15 15 15 16 15 13 7 9 15 16 15 15 15 15
4 3 4 9 10 10 10 10 10 10 10 10 11 11 11 11 12 12 13 13 13 13 14 14 14 14 14 15 15 15 15 15 15 13 8 6 7 13 15 15 14 14 15
4 3 5 10 11 11 10 10 10 10 10 10 10 11 11 12 12 12 13 13 13 13 14 14 14 14 14 14 15 15 15 15 15 11 7 6 6 12 14 14 14 14 14
4 3 4 10 11 11 11 10 10 10 10 10 10 10 11 11 12 12 12 12 13 13 13 14 14 14 14 14 14 15 15 15 12 7 7 6 6 12 14 14 14 14 14
4 3 4 10 11 11 11 10 10 10 10 10 10 10 11 11 12 12 12 12 12 12 13 13 14 14 14 14 14 14 14 13 9 7 6 5 7 13 13 13 13 14 13
4 3 3 8 10 10 10 10 10 10 10 10 10 10 10 11 11 12 11 12 12 12 13 13 13 14 14 14 15 15 15 12 9 7 6 5 10 12 12 12 13 13 13
4 4 3 4 5 8 9 9 9 10 10 10 10 10 10 11 11 11 11 11 11 12 12 13 13 13 13 14 14 15 15 14 8 5 6 5 10 12 12 12 12 13 13
4 3 3 4 4 4 5 8 9 9 9 10 10 10 10 10 10 11 10 11 11 11 12 12 12 13 13 14 14 14 14 11 7 6 4 6 11 12 13 13 12 12 12
3 2 3 4 4 4 5 6 7 8 8 9 8 10 9 5 6 6 9 10 11 11 11 12 12 13 13 13 14 13 10 5 5 5 4 9 12 12 12 13 13 12 12
6 4 3 4 4 4 4 4 4 4 5 5 5 6 5 5 5 6 9 11 11 11 11 11 12 11 9 5 8 10 5 6 5 4 5 12 12 11 12 12 12 12 12
5 4 3 4 4 4 3 3 3 3 3 4 5 5 5 4 4 5 4 5 6 8 6 7 7 5 5 4 4 5 5 5 4 4 6 12 12 11 11 11 11 11 11
5 4 3 4 4 4 4 3 3 3 3 3 4 5 4 3 3 4 3 3 4 3 4 4 3 5 6 6 6 6 6 4 4 3 5 12 11 11 11 11 10 10 10
4 4 4 4 5 5 4 3 3 3 3 3 3 3 4 4 3 3 3 3 3 3 3 3 4 5 5 6 6 6 6 6 5 5 4 10 11 11 10 10 10 10 10
5 5 4 5 5 5 4 4 3 3 3 3 3 3 4 4 3 3 3 3 3 3 3 3 4 4 4 4 5 6 5 5 5 5 5 7 11 11 11 10 10 10 10
5 5 5 5 5 6 6 5 4 3 3 3 3 3 4 4 4 3 3 3 2 2 3 4 4 4 4 4 5 5 5 5 5 5 5 4 5 9 11 11 11 10 10
4 5 5 5 5 5 5 5 4 3 3 3 3 3 4 4 4 4 3 2 2 2 3 3 3 4 4 4 4 4 4 4 5 5 5 5 4 5 8 12 11 11 10
5 5 5 5 5 5 5 5 4 4 3 3 3 3 3 4 4 4 3 2 2 3 3 3 3 3 3 4 3 3 3 3 3 4 5 5 5 5 4 8 11 11 11
3 4 4 4 5 5 4 4 3 3 3 2 2 3 3 3 4 4 3 3 3 3 3 3 3 3 3 3 3 3 3 3 3 3 3 4 4 5 5 5 5 7 11
2 3 4 4 4 5 4 4 4 3 2 2 2 3 4 4 4 4 4 3 3 3 3 3 3 4 2 2 2 2 3 3 3 3 3 3 4 4 4 5 4 4 4
3 4 4 5 5 5 4 4 3 3 2 2 2 2 3 4 4 4 4 4 3 3 4 3 3 2 1 1 2 2 1 2 2 3 2 2 3 3 4 5 4 4 3
3 4 4 5 5 5 5 4 4 3 2 1 2 2 2 4 4 4 5 4 4 4 4 4 3 4 3 1 1 2 2 2 1 1 1 2 2 2 2 2 4 4 4
4 3 3 4 5 5 6 6 7 5 4 4 3 3 3 3 4 3 4 5 5 4 4 4 3 3 4 2 1 1 1 2 2 1 1 1 2 2 2 2 2 3 3
2 2 3 3 4 4 5 6 7 5 3 3 3 4 3 3 3 3 4 4 4 4 4 4 4 3 3 3 2 1 1 1 1 2 2 2 2 1 1 1 1 1 2
0 1 2 3 4 4 5 6 6 6 5 5 5 5 4 3 3 3 3 4 4 4 4 4 4 4 3 3 3 2 2 2 2 2 2 2 2 2 2 1 1 1 1
Wind_Direction
206 219 200 149 136 124 115 109 104 100 96 94 91 88 85 82 80 81 85 84 82 82 82 80 78 76 74 73 72 71 70 68 67 65 63 66 71 73 74 74 72 70 76
168 193 184 149 135 125 118 112 105 101 97 95 92 89 86 85 83 82 84 84 83 83 82 82 80 79 77 75 73 72 70 68 65 62 59 60 66 71 72 71 71 73 75
145 175 168 148 133 125 119 113 108 104 100 97 94 91 88 86 84 82 83 82 83 82 81 81 79 78 77 76 74 71 70 68 64 59 54 50 63 70 71 71 72 72 73
145 156 156 142 133 128 122 116 111 107 103 99 96 94 91 87 85 83 83 82 81 83 82 80 78 77 76 75 74 72 70 67 63 57 50 46 57 70 69 70 72 72 72
137 137 149 136 134 130 124 118 114 110 106 101 98 96 93 90 86 83 82 82 81 82 83 81 79 78 77 76 75 73 71 67 61 53 46 44 54 71 70 69 71 73 74
128 121 142 133 134 131 126 122 117 112 107 104 102 99 95 92 89 86 82 81 81 81 82 82 81 79 77 77 75 74 71 65 57 48 44 43 52 70 72 71 70 73 75
124 112 134 133 132 132 128 123 118 114 110 107 104 101 97 94 90 86 82 81 81 82 81 80 80 79 77 76 75 73 69 63 57 47 41 42 58 69 72 71 70 72 74
121 108 111 136 131 126 122 119 116 115 111 108 103 100 96 93 91 87 84 81 82 83 80 79 79 79 78 77 75 71 66 61 55 46 38 42 61 67 70 70 70 71 73
111 107 100 111 123 125 120 114 113 111 108 106 102 98 92 89 88 87 84 82 82 83 82 79 78 77 77 76 74 71 66 59 49 40 39 42 60 66 68 68 69 70 72
106 108 104 102 100 103 112 112 110 106 105 104 99 92 87 83 81 81 78 79 79 81 81 80 78 76 75 74 72 68 62 54 42 37 32 49 59 65 66 65 66 66 68
126 118 115 110 103 99 101 107 103 103 102 100 96 89 80 67 65 67 71 74 76 78 80 79 78 74 71 69 68 64 58 44 39 35 30 52 60 66 66 64 62 62 64
169 157 135 122 110 105 103 99 88 82 87 82 81 81 72 66 65 67 68 69 71 70 73 77 75 68 64 55 56 56 48 40 42 31 38 50 59 65 66 65 63 60 59
164 152 142 131 118 114 109 99 88 84 80 80 81 81 80 70 65 61 58 55 55 57 54 61 60 53 53 55 56 51 46 45 36 26 36 49 57 63 65 64 62 61 59
152 152 135 134 126 117 109 106 103 99 96 91 87 88 89 81 69 67 62 56 55 56 59 55 62 57 58 55 57 57 51 45 35 25 33 45 54 60 62 61 60 60 60
160 159 153 140 141 132 121 119 113 111 105 104 98 92 97 96 87 80 72 64 62 62 68 66 65 63 60 55 54 57 54 48 43 36 26 40 49 54 58 59 59 58 57
177 172 161 154 150 141 134 131 127 121 115 111 104 101 102 105 104 96 85 74 66 64 72 77 74 72 65 62 55 50 50 47 45 40 32 30 40 48 53 55 56 56 55
183 173 168 160 151 150 144 139 130 129 126 125 119 114 110 110 109 105 97 86 76 76 80 81 74 73 70 63 53 45 46 45 46 41 37 35 28 36 47 51 51 50 49
169 171 172 163 156 157 151 141 136 135 131 129 125 124 120 117 115 111 105 94 89 89 87 86 79 78 67 62 53 41 39 39 44 44 43 39 36 31 35 45 45 45 43
174 170 169 165 164 162 152 140 135 133 131 134 131 130 131 126 125 121 115 109 104 96 89 92 78 88 82 66 58 48 40 39 35 46 47 43 43 40 35 35 37 38 39
168 165 165 165 161 156 148 131 124 120 127 128 135 140 138 134 130 127 124 121 116 106 91 92 95 81 90 81 67 48 37 36 40 45 45 44 46 44 40 38 31 25 29
159 163 169 167 166 159 164 162 159 162 157 149 145 145 146 142 139 134 131 129 130 123 119 118 113 98 80 80 79 50 32 40 50 41 37 46 48 41 41 38 32 27 15
193 189 180 180 177 179 182 170 160 146 155 155 146 145 152 149 150 144 141 146 143 130 123 125 123 120 107 76 104 110 48 8 19 28 27 46 43 35 36 31 29 25 18
208 205 200 192 185 184 172 149 126 111 104 130 161 170 169 161 155 148 152 151 148 146 152 157 153 144 149 134 80 133 147 197 309 342 3 32 33 35 25 19 24 13 12
227 214 207 193 186 182 171 167 166 171 176 186 182 177 168 165 157 151 161 157 156 156 161 173 167 164 155 162 145 58 119 144 156 279 306 340 2 2 0 11 1 359 4
225 207 208 192 187 185 182 180 179 184 180 161 159 167 171 175 167 164 172 165 166 167 170 176 176 173 170 171 167 157 119 91 140 169 246 286 315 301 309 311 310 332 346
278 193 192 189 196 192 188 187 187 185 175 168 170 179 181 180 180 178 178 177 177 174 180 185 184 183 183 177 175 175 173 172 182 179 202 252 277 283 293 274 258 291 313